[[{"header":{"parameterUnit":"m.s-1","parameterCategory":1,"la1":30.2991,"la2":30.254,"lo1":-89.0895,"lo2":-89.0444,"dy":0.0017,"dx":0.0017,"nx":28,"ny":28,"refTime":"2023-11-15T03:00:00:Z","depth":0,"parameterNumber":2,"parameterNumberName":"U-component_of_WINDS"},"data":[0,0,0,0,0,0,0,0,0,0,0,0,0,0,0,0,0,0,0,0,0,0,0,0,0,0,0,0,0,0,0,0,0,0,0,0,0,0,0,0,0,0,0,0,0,0,0,0,0,0,0,0,0,0,0,0,0,0,-6.2815,-6.2816,0,-6.2892,-6.2893,-6.2894,-6.2754,-6.275,-6.2745,-6.2741,-6.2821,-6.2827,-6.2834,0,0,0,0,0,0,0,0,0,0,0,0,0,-6.255,-6.2555,-6.2815,-6.2816,-6.2817,-6.2892,-6.2893,-6.2894,-6.2755,-6.275,-6.2744,-6.2739,-6.2819,-6.2827,-6.2834,0,0,0,0,0,0,0,0,0,0,0,0,0,-6.265,-6.2557,-6.2815,-6.2757,-6.2752,-6.2892,-6.2893,-6.2894,-6.2757,-6.2749,-6.2742,-6.2736,-6.2816,-6.2826,-6.2835,-6.3035,0,0,-6.2865,-6.2869,0,0,0,0,0,0,0,0,-6.2644,-6.266,-6.2764,-6.2761,-6.2756,-6.2806,-6.2828,-6.2942,-6.2758,-6.2755,-6.2741,-6.2733,-6.2822,-6.2831,-6.2861,-6.3039,-6.3042,-6.2866,-6.2872,-6.2876,-6.2879,0,0,0,0,0,0,0,-6.2637,-6.2656,-6.2845,-6.2766,-6.2761,-6.2727,-6.2734,-6.2849,-6.2827,-6.2755,-6.2745,-6.2756,-6.2818,-6.2852,-6.2861,-6.3044,-6.2866,-6.2874,-6.288,-6.2884,-6.3392,-6.3399,0,0,0,0,0,0,-6.2638,-6.2651,-6.2843,-6.2848,-6.2682,-6.2738,-6.2745,-6.2797,-6.2825,-6.2823,-6.2762,-6.2749,-6.2838,-6.285,-6.2864,-6.3101,-6.2876,-6.2885,-6.2891,-6.3384,-6.3393,-6.3402,0,0,0,0,0,0,-6.2632,-6.2656,-6.284,-6.2747,-6.2767,-6.275,-6.281,-6.2803,-6.2836,-6.283,-6.2826,-6.28,-6.2833,-6.285,-6.2994,-6.3102,-6.2889,-6.2898,-6.3375,-6.3387,-6.3398,-6.3577,0,0,0,0,0,0,-6.2625,-6.2655,-6.273,-6.2749,-6.2773,-6.2969,-6.2816,-6.2809,-6.2853,-6.2837,-6.2865,-6.2863,-6.2829,-6.298,-6.3004,-6.3112,-6.2906,-6.3365,-6.338,-6.3394,-6.3562,-6.3593,-6.3621,0,0,0,0,0,-6.2616,-6.2778,-6.2735,-6.2759,-6.2867,-6.2975,-6.2989,-6.2947,-6.2862,-6.2938,-6.2935,-6.2862,-6.3086,-6.2996,-6.3021,-6.3134,-6.3358,-6.3376,-6.3393,-6.3548,-6.3587,-6.362,0,0,0,0,0,0,-6.2772,-6.2779,-6.2732,-6.2904,-6.294,-6.2952,-6.3046,-6.2989,-6.305,-6.3033,-6.2978,-6.2986,-6.3141,-6.3151,-6.3051,-6.333,-6.3208,-6.3231,-6.3318,-6.3354,-6.3383,-6.3379,-6.2914,0,0,0,0,0,-6.2827,-6.2914,-6.2915,-6.3067,-6.3088,-6.3065,-6.311,-6.3074,-6.311,-6.3125,-6.3131,-6.3169,-6.3248,-6.3301,-6.3373,-6.3562,-6.3567,-6.3651,-6.3681,-6.3705,-6.3727,-6.3829,-6.3867,-6.3458,-6.3458,-6.3458,0,0,-6.294,-6.2955,-6.3013,-6.3099,-6.3123,-6.3215,-6.3078,-6.3181,-6.325,-6.314,-6.3277,-6.3284,-6.3322,-6.349,-6.3564,-6.3503,-6.384,-6.3727,-6.3747,-6.3755,-6.3851,-6.3889,-6.3924,-6.347,-6.3468,-6.3466,0,0,-6.3194,-6.3213,-6.3343,-6.337,-6.3408,-6.3391,-6.3422,-6.3443,-6.3443,-6.358,-6.35,-6.358,-6.3717,-6.3748,-6.3782,-6.4049,-6.3986,-6.4074,-6.4229,-6.433,-6.4362,-6.439,-6.4488,-6.4523,-6.4095,-6.4096,-6.4096,0,-6.3331,-6.3467,-6.3417,-6.3526,-6.3567,-6.3472,-6.3603,-6.3632,-6.3692,-6.3723,-6.3653,-6.3824,-6.3843,-6.4017,-6.4083,-6.4112,-6.4148,-6.4072,-6.4361,-6.4389,-6.4415,-6.4507,-6.4544,-6.4106,-6.4105,-6.4104,-6.4103,0,-6.3633,-6.3729,-6.3829,-6.389,-6.3941,-6.4061,-6.4031,-6.4089,-6.4049,-6.4041,-6.4181,-6.4201,-6.4276,-6.4314,-6.4276,-6.4484,-6.4446,-6.437,-6.4247,-6.4466,-6.4552,-6.4586,-6.4122,-6.4118,-6.4115,-6.4112,0,0,-6.3989,-6.4021,-6.4059,-6.4086,-6.4121,-6.4194,-6.431,-6.4383,-6.4436,-6.448,-6.4577,-6.4695,-6.4626,-6.4664,-6.4629,-6.4717,-6.493,-6.463,-6.463,-6.4687,-6.5163,-6.5222,-6.5264,-6.4887,-6.4893,-6.4898,-6.5161,0,-6.4243,-6.4443,-6.4403,-6.4599,-6.4688,-6.4598,-6.47,-6.4733,-6.4728,-6.4803,-6.4796,-6.4882,-6.4783,-6.4806,-6.4889,-6.4887,-6.5025,-6.4867,-6.4979,-6.4983,-6.4974,-6.5308,-6.537,-6.5617,-6.5194,-6.5199,-6.5203,0,-6.4567,-6.4624,-6.483,-6.4852,-6.4888,-6.498,-6.5044,-6.5117,-6.5153,-6.5143,-6.5187,-6.5135,-6.5251,-6.5125,-6.5286,-6.5179,-6.5222,-6.5228,-6.5237,-6.5248,-6.5108,-6.533,-6.5694,-6.5732,-6.5256,-6.5251,-6.5248,0,-6.4809,-6.4937,-6.5077,-6.5103,-6.5131,-6.5198,-6.5214,-6.5242,-6.529,-6.5346,-6.5377,-6.5446,-6.5485,-6.5541,-6.5509,-6.542,-6.5677,-6.5548,-6.5673,-6.5675,-6.5733,-6.573,-6.6112,-6.5758,-6.5757,-6.5756,-6.5755,0,-6.5099,-6.5229,-6.5186,-6.5273,-6.5416,-6.5368,-6.5511,-6.5515,-6.5542,-6.5629,-6.5555,-6.5638,-6.559,-6.567,-6.5646,-6.5784,-6.5801,-6.5798,-6.579,-6.5806,-6.5807,-6.5835,-6.5818,-6.5766,-6.5764,-6.5762,-6.576,0,-6.5394,-6.537,-6.5518,-6.5533,-6.554,-6.5645,-6.5658,-6.5739,-6.5728,-6.5839,-6.5862,-6.5846,-6.5936,-6.5909,-6.6006,-6.599,-6.6166,-6.6135,-6.6154,-6.6148,-6.6276,-6.6265,-6.6691,-6.6745,-6.6354,-6.6357,-6.636,0,-6.5581,-6.5679,-6.5705,-6.5758,-6.5779,-6.5864,-6.5912,-6.5868,-6.5922,-6.5971,-6.6047,-6.613,-6.6194,-6.6342,-6.634,-6.6414,-6.6386,-6.653,-6.6397,-6.641,-6.6391,-6.6387,-6.6397,-6.6558,-6.6562,-6.6566,-6.6569,0,-6.5918,-6.5901,-6.5973,-6.6042,-6.6102,-6.6154,-6.6199,-6.6247,-6.6206,-6.627,-6.6361,-6.6411,-6.651,-6.6595,-6.6662,-6.6678,-6.6619,-6.661,-6.6644,-6.6662,-6.667,-6.667,-6.6229,-6.6601,-6.6598,-6.6596,-6.6594,-6.6592,-6.6166,-6.625,-6.6282,-6.6365,-6.6394,-6.6439,-6.6516,-6.6515,-6.659,-6.6668,-6.6637,-6.6743,-6.6777,-6.6862,-6.6887,-6.6969,-6.6914,-6.6962,-6.6975,-6.6988,-6.7006,-6.6655,-6.6981,-6.698,-6.6979,-6.6978,-6.6978,0,-6.65,-6.6517,-6.6593,-6.666,-6.6726,-6.6662,-6.6709,-6.6769,-6.6862,-6.6899,-6.6964,-6.707,-6.7151,-6.7155,-6.7232,-6.7298,-6.7272,-6.732,-6.7316,-6.7321,-6.7049,-6.7013,-6.7339,-6.7339,-6.7339,-6.7339,-6.7339,-6.7339,-6.6682,-6.6821,-6.6809,-6.6963,-6.6977,-6.708,-6.7113,-6.7154,-6.7183,-6.7305,-6.7372,-6.7374,-6.7398,-6.7476,-6.7549,-6.7548,-6.7581,-6.764,-6.7629,-6.7375,-6.734,-6.7305,-6.7272,-6.7646,-6.7647,-6.7894,-6.7896,-6.7898]},{"header":{"parameterUnit":"m.s-1","parameterCategory":1,"la1":30.2991,"la2":30.254,"lo1":-89.0895,"lo2":-89.0444,"dy":0.0017,"dx":0.0017,"nx":28,"ny":28,"refTime":"2023-11-15T03:00:00:Z","depth":0,"parameterNumber":3,"parameterNumberName":"V-component_of_WINDS"},"data":[0,0,0,0,0,0,0,0,0,0,0,0,0,0,0,0,0,0,0,0,0,0,0,0,0,0,0,0,0,0,0,0,0,0,0,0,0,0,0,0,0,0,0,0,0,0,0,0,0,0,0,0,0,0,0,0,0,0,-3.7869,-3.7869,0,-3.7895,-3.7895,-3.7895,-3.7845,-3.7843,-3.7841,-3.784,-3.7864,-3.7866,-3.7869,0,0,0,0,0,0,0,0,0,0,0,0,0,-3.7771,-3.7773,-3.7869,-3.7869,-3.7869,-3.7895,-3.7895,-3.7896,-3.7845,-3.7843,-3.7841,-3.7839,-3.7864,-3.7866,-3.7869,0,0,0,0,0,0,0,0,0,0,0,0,0,-3.7807,-3.7774,-3.7869,-3.7847,-3.7845,-3.7895,-3.7895,-3.7896,-3.7845,-3.7843,-3.784,-3.7838,-3.7863,-3.7866,-3.7869,-3.794,0,0,-3.7879,-3.7881,0,0,0,0,0,0,0,0,-3.7805,-3.7811,-3.785,-3.7849,-3.7847,-3.7864,-3.787,-3.791,-3.7846,-3.7845,-3.784,-3.7837,-3.7866,-3.7869,-3.7879,-3.7941,-3.7942,-3.788,-3.7882,-3.7883,-3.7884,0,0,0,0,0,0,0,-3.7803,-3.7809,-3.7879,-3.7851,-3.7849,-3.7835,-3.7837,-3.7877,-3.7869,-3.7845,-3.7841,-3.7845,-3.7865,-3.7876,-3.7879,-3.7943,-3.788,-3.7882,-3.7885,-3.7886,-3.8062,-3.8065,0,0,0,0,0,0,-3.7803,-3.7808,-3.7878,-3.788,-3.782,-3.7839,-3.7841,-3.7861,-3.7869,-3.7868,-3.7848,-3.7843,-3.7872,-3.7876,-3.788,-3.7963,-3.7883,-3.7886,-3.7888,-3.806,-3.8063,-3.8066,0,0,0,0,0,0,-3.7802,-3.781,-3.7877,-3.7843,-3.785,-3.7843,-3.7866,-3.7863,-3.7874,-3.7871,-3.7869,-3.7861,-3.787,-3.7875,-3.7925,-3.7963,-3.7888,-3.7891,-3.8056,-3.8061,-3.8064,-3.8129,0,0,0,0,0,0,-3.7799,-3.781,-3.7838,-3.7844,-3.7852,-3.7923,-3.7868,-3.7865,-3.788,-3.7875,-3.7883,-3.7882,-3.7868,-3.7921,-3.7929,-3.7966,-3.7893,-3.8053,-3.8058,-3.8063,-3.8124,-3.8135,-3.8145,0,0,0,0,0,-3.7796,-3.7855,-3.7839,-3.7848,-3.7887,-3.7925,-3.793,-3.7914,-3.7884,-3.7911,-3.7908,-3.7881,-3.7958,-3.7926,-3.7935,-3.7974,-3.8051,-3.8057,-3.8063,-3.8119,-3.8133,-3.8144,0,0,0,0,0,0,-3.7852,-3.7855,-3.7838,-3.7901,-3.7913,-3.7917,-3.795,-3.7929,-3.795,-3.7944,-3.7923,-3.7925,-3.7979,-3.7981,-3.7946,-3.8042,-3.7999,-3.8007,-3.8039,-3.8052,-3.8062,-3.806,-3.7896,0,0,0,0,0,-3.7872,-3.7904,-3.7904,-3.796,-3.7967,-3.7958,-3.7974,-3.7961,-3.7972,-3.7977,-3.7978,-3.799,-3.8016,-3.8034,-3.8058,-3.8124,-3.8124,-3.8155,-3.8165,-3.8174,-3.8181,-3.8215,-3.8228,-3.8086,-3.8086,-3.8086,0,0,-3.7914,-3.7919,-3.794,-3.7971,-3.7979,-3.8012,-3.7962,-3.7999,-3.8023,-3.7982,-3.803,-3.8031,-3.8042,-3.81,-3.8125,-3.8104,-3.822,-3.8182,-3.8188,-3.8191,-3.8222,-3.8236,-3.8248,-3.809,-3.8089,-3.8088,0,0,-3.8005,-3.8013,-3.806,-3.8069,-3.8081,-3.8075,-3.8086,-3.8092,-3.8092,-3.8139,-3.8109,-3.8136,-3.8183,-3.8192,-3.8202,-3.8297,-3.8272,-3.8305,-3.836,-3.8393,-3.8404,-3.8414,-3.8447,-3.8459,-3.8312,-3.8312,-3.8312,0,-3.8055,-3.8103,-3.8086,-3.8125,-3.8138,-3.8104,-3.815,-3.8159,-3.8179,-3.8189,-3.8165,-3.8221,-3.8227,-3.8286,-3.8309,-3.8319,-3.833,-3.8304,-3.8404,-3.8414,-3.8423,-3.8454,-3.8466,-3.8316,-3.8316,-3.8315,-3.8315,0,-3.8163,-3.8197,-3.8233,-3.8254,-3.8271,-3.8314,-3.8302,-3.8322,-3.8306,-3.8302,-3.835,-3.8355,-3.8379,-3.8392,-3.8378,-3.8449,-3.8435,-3.8408,-3.8364,-3.844,-3.8469,-3.8481,-3.8322,-3.832,-3.8319,-3.8318,0,0,-3.8292,-3.8302,-3.8315,-3.8324,-3.8335,-3.836,-3.84,-3.8425,-3.8442,-3.8456,-3.8489,-3.8528,-3.8503,-3.8515,-3.8501,-3.853,-3.8604,-3.8499,-3.8499,-3.8518,-3.8682,-3.8702,-3.8716,-3.8588,-3.859,-3.8592,-3.868,0,-3.8383,-3.8453,-3.8437,-3.8506,-3.8536,-3.8503,-3.8538,-3.8548,-3.8545,-3.8569,-3.8565,-3.8593,-3.8558,-3.8565,-3.8592,-3.8589,-3.8636,-3.8582,-3.8617,-3.8618,-3.8615,-3.8731,-3.8753,-3.8837,-3.8692,-3.8694,-3.8695,0,-3.8498,-3.8517,-3.8589,-3.8594,-3.8606,-3.8638,-3.8658,-3.8683,-3.8693,-3.8688,-3.8702,-3.8682,-3.872,-3.8676,-3.8728,-3.8692,-3.8705,-3.8705,-3.8708,-3.871,-3.8661,-3.8737,-3.8863,-3.8876,-3.8713,-3.8711,-3.871,0,-3.8584,-3.8628,-3.8676,-3.8684,-3.8692,-3.8715,-3.8719,-3.8727,-3.8742,-3.8759,-3.8769,-3.879,-3.8802,-3.8819,-3.8805,-3.8774,-3.8859,-3.8814,-3.8856,-3.8856,-3.8875,-3.8874,-3.9005,-3.8884,-3.8884,-3.8883,-3.8883,0,-3.8687,-3.8732,-3.8715,-3.8745,-3.8793,-3.8775,-3.8823,-3.8823,-3.883,-3.8859,-3.8831,-3.8858,-3.8838,-3.8863,-3.8852,-3.8896,-3.8902,-3.8899,-3.8895,-3.8901,-3.8902,-3.8909,-3.8903,-3.8887,-3.8886,-3.8885,-3.8885,0,-3.8792,-3.8782,-3.8832,-3.8835,-3.8837,-3.8873,-3.8875,-3.8902,-3.8896,-3.8932,-3.894,-3.8931,-3.8958,-3.8946,-3.8975,-3.8968,-3.9025,-3.9014,-3.9022,-3.9019,-3.9061,-3.9057,-3.9202,-3.922,-3.9087,-3.9089,-3.909,0,-3.8858,-3.8892,-3.8898,-3.8915,-3.8921,-3.895,-3.8965,-3.8947,-3.8964,-3.8978,-3.9003,-3.9028,-3.9048,-3.9094,-3.9089,-3.9111,-3.91,-3.9149,-3.9103,-3.9108,-3.91,-3.9099,-3.9101,-3.9159,-3.916,-3.9161,-3.9162,0,-3.8976,-3.897,-3.8993,-3.9015,-3.9034,-3.905,-3.9064,-3.9079,-3.9062,-3.9082,-3.9111,-3.9126,-3.9155,-3.9181,-3.92,-3.9203,-3.918,-3.9177,-3.9188,-3.9194,-3.9197,-3.9196,-3.9047,-3.9174,-3.9173,-3.9172,-3.9171,-3.9171,-3.9063,-3.9091,-3.91,-3.9127,-3.9135,-3.9149,-3.9174,-3.9171,-3.9195,-3.9218,-3.9206,-3.9239,-3.9247,-3.927,-3.9276,-3.9301,-3.9281,-3.9297,-3.9301,-3.9305,-3.9311,-3.9193,-3.9304,-3.9304,-3.9303,-3.9303,-3.9303,0,-3.918,-3.9184,-3.9208,-3.9228,-3.9249,-3.9226,-3.9239,-3.9258,-3.9288,-3.9297,-3.9317,-3.9349,-3.9373,-3.9371,-3.9392,-3.9413,-3.9403,-3.9419,-3.9417,-3.9418,-3.9327,-3.9315,-3.9427,-3.9427,-3.9427,-3.9427,-3.9427,-3.9427,-3.9243,-3.9289,-3.9283,-3.9333,-3.9336,-3.9368,-3.9378,-3.9389,-3.9397,-3.9434,-3.9454,-3.9452,-3.9457,-3.9479,-3.95,-3.9498,-3.9507,-3.9528,-3.9522,-3.9437,-3.9425,-3.9413,-3.9402,-3.953,-3.953,-3.9611,-3.9612,-3.9613]}]]